GFSCGP_sfc_rhum_336.txt.gz
RH
56 57 61 46 37 28 25 27 25 22 33 36 32 29 23 20 22 17 18 20 21 21 80 88 94 95 95 93 87 86 86 85 80 81 80 88 91 93 94 93 87 88 91 91
62 60 44 36 39 33 34 33 28 26 29 28 28 25 22 21 21 25 30 29 26 70 92 96 96 94 92 93 90 89 84 83 78 77 79 82 93 93 93 93 89 89 90 91
59 39 41 35 47 38 37 31 28 26 28 31 33 20 20 28 33 35 41 46 56 76 94 97 95 94 95 94 92 86 85 81 77 76 93 94 92 93 92 93 93 90 89 90
50 40 43 45 39 35 37 34 27 31 29 28 38 27 22 24 27 32 38 50 72 86 91 94 94 95 94 94 92 87 85 80 73 86 84 84 85 86 92 92 93 91 89 91
50 52 49 50 40 32 33 40 35 33 37 42 38 34 23 29 24 28 32 38 61 80 88 93 93 92 92 94 93 91 84 75 76 80 78 83 88 92 94 93 88 89 91 91
47 54 43 39 44 31 53 48 52 60 57 74 38 28 27 20 24 33 35 36 41 64 82 89 91 91 92 94 93 89 76 73 74 76 84 86 85 90 92 91 92 93 94 94
61 55 55 48 46 55 53 48 81 70 76 64 51 42 26 24 30 29 33 33 42 54 74 88 91 93 92 92 91 82 74 72 72 76 84 86 86 88 87 88 91 91 92 92
68 71 57 50 45 53 57 43 68 55 63 54 52 44 29 36 32 36 33 34 43 54 68 82 88 91 91 88 85 78 75 71 73 76 83 87 86 92 91 90 92 92 92 92
74 63 65 59 49 46 56 55 50 78 92 81 51 45 35 39 36 34 37 39 44 52 65 75 83 87 88 86 82 78 75 72 72 75 85 87 88 88 89 88 89 91 90 88
62 75 74 64 55 57 53 42 54 77 67 70 72 56 41 42 38 33 40 41 44 51 60 71 79 85 86 84 80 78 75 73 72 74 83 85 88 87 88 88 88 88 89 88
79 74 84 66 71 61 60 63 49 52 65 64 74 50 45 37 37 33 35 39 38 46 54 65 74 83 85 85 83 79 79 76 75 76 79 86 89 88 88 89 88 88 88 90
79 82 89 80 78 69 66 49 46 47 64 84 77 53 58 53 41 37 38 49 57 46 51 59 69 77 85 84 85 84 82 80 77 76 78 84 88 89 90 90 88 87 88 91
70 93 98 96 85 72 73 61 49 59 69 78 62 48 60 57 51 51 57 62 66 71 66 56 62 72 78 82 84 85 85 83 80 77 78 84 88 90 90 89 87 87 89 92
56 98 77 68 67 64 83 81 59 60 73 56 61 56 64 65 63 61 65 70 78 78 74 76 74 72 72 76 79 82 82 84 83 79 79 82 87 89 88 88 87 87 91 93
63 84 85 93 78 63 62 58 70 79 42 51 41 59 52 56 62 69 67 78 78 86 83 78 79 81 81 81 81 78 82 84 85 81 80 81 83 86 87 89 88 88 93 94
84 99 91 88 93 83 82 72 67 64 63 64 81 72 54 52 66 68 68 80 75 75 80 84 78 80 80 92 83 80 82 82 85 83 80 80 84 88 89 89 89 92 94 95
86 95 98 97 97 96 96 79 68 59 48 45 60 44 63 67 59 59 69 76 76 78 76 77 76 78 81 82 82 82 80 84 87 85 83 82 85 88 90 90 91 94 95 95
92 98 98 98 96 98 77 72 60 59 52 46 51 49 57 54 46 54 64 71 79 78 79 79 80 81 85 86 85 88 88 88 88 87 84 85 88 88 90 91 93 94 96 96
67 83 97 95 98 79 76 70 73 74 64 48 41 45 64 78 74 86 80 78 78 81 83 82 82 85 89 89 88 89 90 89 88 87 85 86 88 89 91 92 93 95 97 98
71 61 78 98 95 94 68 60 59 46 72 52 43 42 84 63 66 70 83 82 85 87 86 88 87 88 89 90 88 89 91 90 91 88 86 87 89 89 90 90 99 96 99 100
99 99 95 96 96 81 60 71 48 68 54 50 43 49 66 54 50 68 82 92 89 91 93 92 91 93 92 89 88 92 95 98 98 91 89 89 90 90 90 92 97 100 100 100
91 96 97 98 92 78 64 67 48 43 66 57 45 47 54 72 79 78 84 92 94 96 96 94 94 96 95 91 94 98 97 99 99 98 99 99 98 96 93 93 98 100 100 100
95 73 90 77 67 64 54 64 52 67 62 62 51 55 60 81 79 83 92 94 94 90 88 89 92 96 99 98 98 98 100 97 97 96 96 98 98 98 99 100 100 100 100 100
84 78 84 77 68 71 60 68 64 68 73 74 74 72 72 76 80 87 88 87 79 78 79 86 86 90 97 99 95 94 93 93 95 95 96 95 95 95 97 99 100 100 100 100
89 79 88 82 82 78 78 75 70 80 84 85 82 72 72 75 81 83 82 74 69 72 85 88 87 90 96 97 99 94 92 96 95 92 93 96 93 94 93 97 99 100 99 100
90 81 66 69 69 63 66 72 81 81 85 80 77 80 78 74 78 75 70 65 66 77 85 89 92 91 95 94 96 99 93 96 97 97 98 95 90 95 93 91 92 88 92 94

GFSCGP_sfc_rhum_339.txt.gz
RH
56 56 61 48 35 28 24 28 21 20 28 37 33 30 23 22 21 19 17 17 17 19 32 61 74 87 91 85 79 78 80 80 73 71 75 76 75 79 80 80 79 77 79 81
63 62 45 41 37 30 35 32 28 25 29 33 29 27 20 21 20 19 19 24 28 48 77 90 94 93 90 87 80 80 78 76 71 68 70 70 78 80 78 81 79 79 79 82
57 38 43 39 48 42 40 31 29 25 29 32 32 20 18 25 31 33 33 37 38 57 80 95 96 94 92 88 82 78 77 74 70 70 81 82 81 83 80 81 79 79 79 82
50 42 45 44 42 40 40 34 29 29 28 28 34 24 22 23 24 31 32 44 60 79 90 93 93 94 91 89 85 80 78 75 70 78 75 74 72 74 77 79 81 78 80 82
51 51 49 50 42 32 33 41 36 36 37 39 39 25 22 28 20 22 30 40 65 82 88 93 92 91 89 89 86 83 81 75 72 76 72 72 75 79 81 82 78 78 80 82
50 54 45 38 41 31 49 47 50 58 54 76 41 24 26 19 20 26 32 36 59 81 89 91 90 91 91 91 89 86 78 72 73 73 74 75 77 82 82 80 78 79 81 83
59 56 53 46 50 57 50 45 79 71 79 64 49 39 23 21 22 26 30 36 45 70 87 92 94 93 92 92 90 83 74 70 70 69 76 77 77 80 76 76 77 80 79 80
70 74 57 51 44 51 55 40 68 55 64 52 50 41 28 32 28 31 33 33 41 57 76 87 90 90 90 91 88 79 72 68 68 70 75 79 78 79 78 77 79 80 80 81
74 66 63 55 46 44 58 56 47 75 92 78 46 39 32 40 35 34 33 38 43 51 66 80 88 89 88 88 86 78 73 68 68 68 74 80 80 81 79 80 79 80 80 80
62 73 74 64 53 52 49 41 54 76 65 72 68 54 36 37 38 36 37 38 43 50 61 71 82 87 87 84 82 77 71 67 68 70 75 77 80 81 80 80 80 79 79 80
70 70 84 67 68 60 57 61 45 48 62 64 71 42 44 31 35 34 37 40 42 50 57 68 77 83 84 82 81 76 74 72 71 72 74 79 82 82 80 80 79 79 79 81
73 78 91 81 74 69 64 46 41 49 66 83 72 51 56 51 44 38 35 41 41 48 54 64 72 82 86 84 83 78 76 76 73 72 72 79 81 83 83 82 81 81 80 84
64 88 98 92 80 75 85 66 43 56 66 73 61 34 58 54 48 42 42 54 54 51 54 62 74 82 85 85 84 81 80 78 77 75 75 80 83 85 84 83 83 82 82 87
56 95 66 65 62 63 78 70 52 46 51 44 54 41 52 56 55 54 60 68 70 69 65 60 69 75 79 82 81 82 82 81 81 78 76 80 82 82 83 83 84 84 84 88
67 79 80 89 80 67 63 59 62 63 38 49 39 57 42 52 58 68 68 72 78 84 83 77 79 80 78 78 78 80 80 83 83 80 78 76 80 81 84 86 86 85 89 89
76 88 88 90 92 87 85 65 65 59 51 48 76 73 50 58 66 66 69 77 75 75 80 82 80 82 83 87 80 78 81 82 84 81 78 76 80 84 86 86 87 87 90 93
88 94 94 85 92 89 95 77 66 58 47 46 63 35 59 66 57 55 61 67 67 70 73 76 76 80 81 82 81 79 78 82 85 84 83 81 83 86 87 87 88 89 92 93
72 78 98 98 97 97 68 65 56 54 51 42 36 44 43 52 47 45 54 62 68 71 73 72 74 75 81 83 84 83 85 84 86 86 84 83 85 86 90 91 89 90 93 96
60 74 97 96 94 82 79 69 79 71 62 50 46 38 42 63 61 66 68 66 63 72 74 76 77 82 85 86 88 89 90 90 89 88 85 86 86 88 91 91 90 92 95 98
68 67 78 97 96 90 64 70 66 58 72 50 47 44 72 54 51 48 76 70 80 78 81 84 85 87 86 89 89 88 92 91 91 88 87 87 88 87 89 90 92 95 98 98
97 93 94 92 96 84 65 72 54 73 50 55 48 44 60 44 32 50 68 78 78 79 83 82 82 83 90 89 88 93 96 98 96 91 91 91 91 90 88 91 98 100 99 100
97 96 96 95 97 87 67 64 56 44 58 54 57 47 44 44 74 73 71 84 85 88 89 85 86 93 95 95 94 97 97 99 98 98 98 99 99 97 94 94 99 100 100 100
93 99 94 77 68 64 54 61 53 62 51 57 60 57 48 76 79 74 85 86 88 87 88 89 93 97 98 98 97 97 99 97 97 96 98 99 99 100 100 100 99 98 100 100
97 92 98 81 70 70 59 74 61 70 73 76 69 64 70 82 79 81 85 89 88 89 90 93 96 98 99 99 98 98 98 97 98 96 94 93 96 97 99 99 100 100 100 100
98 98 97 84 83 74 73 70 74 77 83 84 80 72 78 81 85 83 88 86 85 84 87 84 86 92 100 99 98 96 97 94 93 95 95 96 96 94 93 94 97 100 100 100
97 94 98 81 68 65 62 67 71 83 85 84 81 86 82 81 85 83 81 78 76 79 82 84 88 92 96 97 100 99 97 95 95 97 98 96 88 91 96 95 92 84 88 88

GFSCGP_sfc_rhum_342.txt.gz
RH
42 34 34 27 24 17 15 17 13 11 15 23 19 19 14 12 14 14 12 11 11 13 12 15 21 39 50 57 57 59 62 62 60 60 60 60 57 58 59 59 64 60 60 65
42 38 25 25 28 25 20 19 16 16 20 25 18 19 14 13 12 11 10 9 10 11 22 34 41 56 59 61 60 61 58 61 57 55 55 53 56 55 55 61 63 63 61 66
33 28 27 30 34 30 25 21 18 17 19 19 21 11 11 12 14 16 15 17 19 18 24 42 53 61 64 67 64 61 60 58 55 51 56 61 64 66 62 62 59 61 62 67
34 28 37 33 29 25 24 24 20 24 21 19 22 12 11 13 14 21 20 22 21 28 38 47 57 66 68 66 62 60 61 58 54 51 52 52 48 53 55 57 59 60 64 65
41 42 38 42 30 26 20 28 27 27 28 25 18 17 9 15 11 10 17 22 28 37 45 53 60 63 64 70 66 62 62 58 54 53 50 49 49 52 56 60 61 61 64 66
35 38 33 28 33 27 33 34 36 38 33 59 24 15 8 8 11 13 17 22 34 49 56 56 64 70 71 70 68 64 62 57 54 55 51 47 51 59 62 59 57 57 61 64
45 44 40 35 39 41 42 33 80 73 85 54 32 28 12 12 14 16 16 21 34 52 60 65 71 70 72 72 69 66 61 58 54 52 49 50 53 57 54 53 54 59 59 61
74 76 46 39 33 40 46 33 68 57 52 30 37 28 17 19 22 19 20 20 34 51 59 66 68 69 71 71 68 64 60 56 52 49 50 52 54 52 51 52 55 57 58 61
74 62 39 37 35 33 56 56 38 74 78 50 23 20 19 24 23 23 24 26 31 46 56 64 67 66 67 69 70 64 58 52 49 47 47 54 54 56 54 58 59 60 61 62
59 87 61 46 36 39 40 35 48 58 66 52 33 28 19 26 20 24 27 29 28 33 49 57 63 66 65 65 66 60 53 50 48 45 46 50 54 57 57 59 60 59 60 63
66 65 75 53 55 43 44 47 41 35 39 49 49 24 21 18 19 22 23 28 28 33 39 50 58 62 65 65 64 59 55 51 51 50 48 55 58 58 59 58 58 58 61 63
50 61 78 76 61 53 27 29 29 40 64 41 43 33 30 29 31 31 25 29 29 33 36 42 51 59 63 65 64 60 55 53 51 49 50 56 55 58 59 59 58 61 60 66
53 94 91 84 69 63 61 42 28 28 51 59 58 32 40 37 36 35 30 32 34 37 40 44 49 56 59 60 60 56 55 53 54 51 53 56 58 60 59 59 60 62 62 66
56 96 68 57 50 46 72 50 39 40 68 49 44 41 25 46 46 37 39 45 41 42 46 46 51 53 54 55 55 54 53 51 56 53 54 56 58 58 58 60 62 64 63 66
63 83 77 64 54 43 48 58 59 60 42 62 46 54 31 30 44 55 44 52 56 85 78 58 65 62 60 62 61 58 54 58 56 56 56 55 58 56 58 63 65 65 66 66
68 96 76 78 81 70 69 52 64 57 54 57 61 65 31 23 41 49 44 52 55 58 76 78 64 77 74 90 66 62 70 66 61 58 60 53 56 59 64 64 67 67 68 71
86 98 97 92 88 89 88 67 58 51 42 45 61 40 38 46 43 39 41 48 49 48 51 58 57 73 71 66 60 59 56 59 64 62 65 60 60 62 66 65 66 68 69 72
99 99 99 86 94 98 62 41 43 50 46 40 36 33 31 33 37 37 33 40 44 45 48 51 54 56 65 68 74 60 60 62 65 66 63 62 66 71 74 77 67 68 70 74
91 92 89 97 93 65 64 54 52 54 47 37 35 31 28 38 39 34 35 37 41 44 49 53 54 54 58 61 62 64 71 72 72 69 66 66 65 71 75 73 70 66 73 77
89 95 77 98 94 91 43 53 46 40 59 35 36 34 34 38 40 29 49 49 50 50 58 62 64 66 64 68 69 73 80 79 75 74 76 70 72 69 71 74 78 84 80 91
98 98 96 86 94 71 39 56 44 73 47 29 32 36 37 39 29 38 50 52 58 62 68 68 66 65 67 73 77 84 81 82 82 84 84 84 79 83 69 74 92 92 95 99
96 95 93 84 94 90 53 57 53 40 39 38 39 38 41 39 38 52 53 64 68 72 77 73 71 74 73 82 81 90 93 96 93 95 97 99 96 90 87 96 100 100 100 100
92 91 97 94 81 53 52 42 38 41 38 40 45 51 41 44 54 55 65 67 68 75 75 78 86 97 97 97 90 97 99 99 100 100 100 100 100 100 100 100 100 100 100 100
82 87 92 91 76 60 51 47 44 50 44 46 46 50 44 52 59 66 68 72 74 81 88 97 97 97 98 98 98 98 99 99 100 100 100 100 100 100 100 100 100 100 100 100
86 95 94 91 74 72 60 50 50 62 60 60 58 54 48 60 64 68 78 78 79 85 95 95 97 97 98 98 98 99 100 100 99 100 99 100 97 99 98 97 96 100 100 100
84 84 92 92 96 98 71 71 61 65 60 67 69 73 69 68 73 78 79 77 82 88 89 92 94 96 98 98 98 97 96 96 95 97 94 90 92 94 93 94 94 85 87 88

GFSCGP_sfc_rhum_345.txt.gz
RH
35 32 33 24 21 11 11 10 10 7 12 18 14 13 10 9 8 9 10 9 9 10 10 12 26 31 41 46 52 57 58 59 59 63 63 62 58 56 55 55 59 53 55 59
40 42 23 20 18 18 18 14 12 10 14 21 13 13 10 9 9 9 8 7 9 9 10 15 16 21 30 47 53 56 57 59 57 58 58 54 53 52 52 58 60 56 56 61
37 24 21 21 25 24 24 20 15 14 17 14 16 10 8 5 6 7 8 9 7 9 10 15 24 33 40 48 54 56 58 57 53 53 54 54 58 60 61 61 58 58 56 62
36 23 26 26 28 23 23 17 17 19 20 18 13 12 8 7 10 12 14 14 12 15 14 14 28 37 47 52 56 57 57 56 53 51 53 52 48 53 54 57 54 56 58 60
40 33 34 38 28 22 22 21 22 22 26 26 19 19 9 7 9 7 9 15 17 16 22 25 35 43 49 59 61 58 58 55 53 52 49 48 44 46 52 56 58 56 60 61
30 30 28 24 23 22 24 27 29 27 30 62 29 18 12 7 7 7 9 13 20 24 31 35 42 50 56 62 62 61 59 56 53 53 49 45 44 50 58 56 55 55 59 62
41 38 31 28 33 29 28 29 88 81 83 56 22 22 15 10 8 10 10 13 21 35 40 43 53 59 64 67 64 62 59 57 54 53 48 43 41 47 52 52 50 54 58 61
77 80 39 30 28 36 35 27 65 62 63 33 29 26 15 13 13 16 14 15 22 38 44 49 54 55 63 67 65 61 58 57 53 50 45 42 44 46 46 46 48 52 54 58
75 62 37 28 23 26 39 50 28 74 78 44 24 18 13 17 16 18 19 19 23 38 47 52 53 57 63 65 65 61 57 54 52 47 44 44 44 46 47 48 51 55 55 57
49 90 55 35 27 29 30 23 48 56 70 60 37 25 22 22 18 14 19 24 24 37 46 52 56 58 61 62 62 58 55 53 50 45 41 43 45 48 49 52 56 55 56 59
55 64 74 45 51 40 39 42 28 29 36 55 56 31 15 15 13 14 16 22 24 35 44 50 54 56 58 60 63 60 56 52 50 46 44 49 50 49 52 53 54 56 57 58
52 64 84 78 39 29 25 28 26 43 69 36 42 36 22 17 19 25 20 21 25 28 38 45 50 57 60 62 64 61 56 53 49 46 44 51 48 50 54 54 53 56 58 60
51 95 94 92 64 45 58 32 26 24 48 59 59 36 20 26 30 29 29 24 28 30 32 38 47 54 56 58 61 57 54 51 51 45 47 51 52 53 54 54 55 59 58 62
53 74 72 58 48 47 72 51 34 35 61 45 42 39 28 41 36 30 36 38 36 38 38 38 44 50 53 55 56 54 52 49 51 48 49 54 55 54 52 53 57 61 60 64
56 99 78 68 44 35 48 58 56 59 38 56 43 55 30 26 32 50 37 39 46 66 64 50 57 57 55 57 56 53 50 51 52 50 52 53 58 53 52 58 61 62 64 63
60 94 84 80 74 63 72 50 62 61 53 52 51 65 32 27 26 44 38 40 43 52 73 70 61 70 63 77 58 53 60 59 54 53 57 51 54 55 60 61 64 65 66 65
69 99 99 92 75 78 93 68 54 52 44 42 59 39 26 32 30 28 32 35 38 38 44 53 55 75 69 68 60 60 59 62 60 60 62 57 56 60 62 62 63 66 65 66
92 93 93 92 74 98 61 39 39 47 42 37 33 32 30 30 28 29 24 29 34 35 40 44 46 51 61 65 70 60 61 63 66 64 63 60 65 68 70 73 64 62 63 68
95 97 98 90 84 58 52 46 47 48 46 34 32 28 26 27 31 28 27 26 30 36 39 42 44 45 53 62 61 63 68 68 69 68 65 64 65 71 76 75 68 63 68 71
96 88 96 95 89 89 42 37 34 33 56 30 31 31 28 27 36 28 25 32 33 36 45 51 53 56 58 59 61 68 75 78 77 75 75 69 70 72 72 75 76 81 76 83
97 95 96 95 94 79 50 32 35 68 53 32 29 30 30 30 27 25 28 34 39 47 56 58 58 59 60 68 76 86 83 83 88 89 88 84 80 79 68 75 88 90 92 97
93 93 92 96 95 94 38 43 51 40 36 30 30 29 32 30 28 28 36 40 51 60 65 63 62 68 69 84 82 86 85 92 92 94 95 96 94 88 87 96 99 99 96 100
84 82 92 79 73 74 60 61 51 35 35 32 35 44 33 32 29 31 42 52 59 63 66 72 78 91 94 96 85 93 98 99 100 100 100 100 100 100 100 100 100 100 100 100
73 75 83 86 83 85 62 52 50 48 46 41 38 40 42 36 34 42 52 57 64 73 79 87 91 96 98 98 97 98 99 100 100 100 100 100 100 100 100 100 100 100 100 100
77 79 86 82 75 79 71 63 65 72 60 52 45 41 44 43 43 51 64 71 73 77 88 88 90 95 98 98 98 99 99 100 99 99 99 100 99 100 99 99 100 100 100 100
84 88 86 69 89 82 75 62 71 83 77 60 57 63 61 56 55 67 73 73 78 87 89 91 93 97 97 98 98 99 100 99 98 98 98 96 96 96 96 96 96 88 90 91